Hourly Data Report for October 30, 2019

All times are specified in Local Standard Time (LST). Add 1 hour to adjust for Daylight Saving Time where and when it is observed.

EUREKA CLIMATE
NUNAVUT
Current Station Operator: ECCC - MSC

79°59'21.000" N
85°56'02.000" W
10.00 m
2401199
71613
NEK

Download Data

Hourly Data (October 2019)
Hourly Data Report for October 30, 2019
TIME Temp Definition
°C
Dew Point Definition
°C
Rel Hum Definition
%
Wind Dir Definition
10's deg

Wind Spd Definition
km/h
Visibility Definition
km
Stn Press Definition
kPa
Hmdx Definition


Wind Chill Definition


Weather Definition


00:00 -19.9 -21.6 87 2 3   102.14   -22 LegendNANA
01:00 -19.4 -21.0 87 31 4   102.10   -23 LegendNANA
02:00 -19.3 -20.9 87 30 5   102.06   -23 LegendNANA
03:00 -19.9 -21.6 87 30 6   102.05   -25 LegendNANA
04:00 -19.8 -21.4 87 29 6   101.99   -25 LegendNANA
05:00 -20.0 -21.7 87 30 6   101.93   -25 LegendNANA
06:00 -20.0 -21.6 87 30 4   101.89   -23 LegendNANA
07:00 -20.0 -21.6 87 29 4   101.85   -23 LegendNANA
08:00 -20.0 -21.6 87 29 4   101.82   -23 LegendNANA
09:00 -20.4 -22.1 86 30 2   101.78   -22 LegendNANA
10:00 -20.2 -21.8 87 29 4   101.74   -24 LegendNANA
11:00 -20.1 -21.8 87 31 3   101.70   -23 LegendNANA
12:00 -19.8 -21.4 87 29 4   101.67   -23 LegendNANA
13:00 -19.8 -21.4 87 31 3   101.65   -22 LegendNANA
14:00 -19.9 -21.5 87 30 2   101.65   -22 LegendNANA
15:00 -20.6 -22.4 86 32 2   101.63   -22 LegendNANA
16:00 -21.6 -23.5 85 31 3   101.60   -24 LegendNANA
17:00 -25.1 -27.2 82 1 2   101.59   -27 LegendNANA
18:00 -25.5 -27.9 80 35 2   101.58   -28 LegendNANA
19:00 -25.5 -27.7 82 6 1   101.59   -27 LegendNANA
20:00 -25.2 -27.4 82 0 1   101.57   -26 LegendNANA
21:00 -26.2 -28.5 81   0   101.55     LegendNANA
22:00 -26.8 -29.1 81 0 1   101.54   -28 LegendNANA
23:00 -27.5 -30.0 79   0   101.54     LegendNANA

Notes on Data Quality.

Legend

  • E = Estimated
  • M = Missing
  • NA = Not Available
Date modified: